Location: Newark
(43.0000°N, 1.6781°W)
Time: 11:04:52
(UTC+00:00)

Explorer 7 - Pass Details

Date: 24 April 2021
Orbit: 484 x 677 km, 50.3° (Epoch: 07 May)

Event Time Altitude Azimuth Distance (km) Brightness Sun altitude
Rises 01:48:00 0° 290° (WNW) 2,852 - -29.3°
Reaches altitude 10° 01:50:43 10° 274° (W) 1,982 - -29.1°
Maximum altitude 01:54:04 20° 226° (SW) 1,459 - -28.8°
Drops below altitude 10° 01:57:30 10° 180° (S) 2,049 - -28.4°
Sets 02:00:23 0° 163° (SSE) 2,980 - -28.2°
